Last updated on Nov. 29, 2017, 12:19 a.m. UTC
1 25039U 97069A 17332.89575597 .00149173 49657-5 47051-3 0 9992 2 25039 86.3862 297.3731 0176634 121.5512 240.3145 15.70508431 52101
Satellite is not in orbit.
PulseSat is the new satellites software and hardware trackering solution by Pulsely. Satellite Two Line Element Set source: US Air Force Space Command